.
WxDataArchive / Data Records for 2012-12-17
2012-12-16 December 2012 2012-12-18

Data Records for Monday, 17 December 2012

Time	Temp	Chill	HIndex	Humid	Dewpt	 Wind 	HiWind	WindDir	Rain 	Barom 
-----	----	-----	------	-----	-----	------	------	-------	-----	----- 
00:00	40.8	40.8	40.8	81	35.4	1	4	248	0.00	29.713 
00:05	40.8	40.8	40.8	81	35.4	0	1	248	0.00	29.713 
00:10	40.8	40.8	40.8	81	35.4	1	2	248	0.00	29.713 
00:15	40.6	40.6	40.6	81	35.2	1	3	248	0.00	29.713 
00:20	40.6	40.6	40.6	81	35.2	1	4	248	0.00	29.713 
00:25	40.6	40.6	40.6	81	35.2	1	3	248	0.00	29.713 
00:30	40.6	40.6	40.6	80	34.9	1	3	248	0.00	29.711 
00:35	40.6	40.6	40.6	80	34.9	0	1	248	0.00	29.711 
00:40	40.6	40.6	40.6	80	34.9	1	3	248	0.00	29.711 
00:45	40.6	40.6	40.6	80	34.9	0	3	248	0.00	29.714 
00:50	40.6	40.6	40.6	80	34.9	0	2	248	0.00	29.714 
00:55	40.6	40.6	40.6	80	34.9	1	2	248	0.00	29.714 
01:00	40.6	40.6	40.6	79	34.6	1	2	248	0.00	29.713 
01:05	40.6	40.6	40.6	79	34.6	1	3	338	0.00	29.713 
01:10	40.6	40.6	40.6	79	34.6	0	3	248	0.00	29.713 
01:15	40.6	40.6	40.6	79	34.6	0	1	248	0.00	29.711 
01:20	40.6	40.6	40.6	79	34.6	0	1	248	0.00	29.711 
01:25	40.6	40.6	40.6	79	34.6	0	1	248	0.00	29.711 
01:30	40.6	40.6	40.6	80	34.9	0	1	248	0.00	29.711 
01:35	40.5	40.5	40.5	80	34.8	0	2	248	0.00	29.711 
01:40	40.5	40.5	40.5	80	34.8	0	1	248	0.00	29.711 
01:45	40.5	40.5	40.5	80	34.8	0	3	248	0.00	29.709 
01:50	40.5	40.5	40.5	80	34.8	0	2	248	0.00	29.709 
01:55	40.5	40.5	40.5	80	34.8	0	1	248	0.00	29.709 
02:00	40.5	40.5	40.5	80	34.8	0	3	248	0.00	29.710 
02:05	40.5	40.5	40.5	80	34.8	0	1	248	0.00	29.710 
02:10	40.5	40.5	40.5	80	34.8	0	2	248	0.00	29.710 
02:15	40.5	40.5	40.5	80	34.8	0	2	248	0.00	29.714 
02:20	40.5	40.5	40.5	81	35.1	0	1	248	0.00	29.714 
02:25	40.5	40.5	40.5	81	35.1	0	1	248	0.00	29.714 
02:30	40.5	40.5	40.5	81	35.1	0	2	248	0.00	29.715 
02:35	40.3	40.3	40.3	80	34.6	0	1	248	0.00	29.715 
02:40	40.3	40.3	40.3	81	34.9	0	1	248	0.00	29.715 
02:45	40.3	40.3	40.3	81	34.9	0	1	248	0.00	29.720 
02:50	40.3	40.3	40.3	81	34.9	0	2	248	0.00	29.720 
02:55	40.3	40.3	40.3	81	34.9	0	1	248	0.00	29.720 
03:00	40.3	40.3	40.3	81	34.9	0	1	248	0.00	29.723 
03:05	40.3	40.3	40.3	81	34.9	0	1	248	0.00	29.723 
03:10	40.3	40.3	40.3	81	34.9	0	2	248	0.00	29.723 
03:15	40.3	40.3	40.3	81	34.9	0	2	248	0.00	29.723 
03:20	40.3	40.3	40.3	81	34.9	0	3	248	0.00	29.723 
03:25	40.3	40.3	40.3	81	34.9	0	1	248	0.00	29.723 
03:30	40.3	40.3	40.3	81	34.9	0	2	248	0.00	29.722 
03:35	40.2	40.2	40.2	81	34.8	0	1	248	0.00	29.722 
03:40	40.2	40.2	40.2	82	35.2	0	1	248	0.00	29.722 
03:45	40.2	40.2	40.2	82	35.2	0	1	248	0.00	29.720 
03:50	40.2	40.2	40.2	82	35.2	0	2	248	0.00	29.720 
03:55	40.2	40.2	40.2	82	35.2	0	2	248	0.00	29.720 
04:00	40.2	40.2	40.2	82	35.2	0	0	---	0.00	29.720 
04:05	40.2	40.2	40.2	82	35.2	0	1	248	0.00	29.720 
04:10	40.2	40.2	40.2	82	35.2	0	2	248	0.00	29.720 
04:15	40.1	40.1	40.1	82	35.1	0	2	248	0.00	29.723 
04:20	40.1	40.1	40.1	82	35.1	0	1	248	0.00	29.723 
04:25	40.1	40.1	40.1	82	35.1	0	2	248	0.00	29.723 
04:30	40.1	40.1	40.1	82	35.1	0	2	248	0.00	29.723 
04:35	40.1	40.1	40.1	83	35.4	0	1	248	0.00	29.723 
04:40	40.1	40.1	40.1	83	35.4	0	1	248	0.00	29.723 
04:45	39.9	39.9	39.9	83	35.2	0	1	248	0.00	29.717 
04:50	39.9	39.9	39.9	83	35.2	0	1	248	0.00	29.717 
04:55	39.9	39.9	39.9	83	35.2	0	2	248	0.00	29.717 
05:00	39.9	39.9	39.9	83	35.2	0	1	248	0.00	29.719 
05:05	39.9	39.9	39.9	83	35.2	0	1	248	0.00	29.719 
05:10	39.9	39.9	39.9	84	35.5	0	1	248	0.00	29.719 
05:15	39.8	39.8	39.8	84	35.4	0	1	248	0.00	29.725 
05:20	39.6	39.6	39.6	84	35.2	0	2	248	0.00	29.725 
05:25	39.5	39.5	39.5	84	35.1	0	2	248	0.00	29.725 
05:30	39.5	39.5	39.5	84	35.1	0	2	248	0.00	29.725 
05:35	39.3	39.3	39.3	84	34.9	0	2	248	0.00	29.725 
05:40	39.3	39.3	39.3	84	34.9	0	1	248	0.00	29.725 
05:45	39.3	39.3	39.3	84	34.9	0	1	248	0.00	29.726 
05:50	39.2	39.2	39.2	84	34.8	0	2	248	0.00	29.726 
05:55	39.2	39.2	39.2	84	34.8	0	2	248	0.00	29.726 
06:00	39.2	39.2	39.2	84	34.8	0	1	248	0.00	29.723 
06:05	39.2	39.2	39.2	84	34.8	0	1	248	0.00	29.723 
06:10	39.2	39.2	39.2	84	34.8	0	1	248	0.00	29.723 
06:15	39.1	39.1	39.1	84	34.7	0	1	248	0.00	29.730 
06:20	39.1	39.1	39.1	84	34.7	0	1	248	0.00	29.730 
06:25	39.1	39.1	39.1	84	34.7	0	0	---	0.00	29.730 
06:30	39.1	39.1	39.1	84	34.7	0	1	248	0.00	29.727 
06:35	39.1	39.1	39.1	84	34.7	0	0	---	0.00	29.727 
06:40	39.1	39.1	39.1	85	35.0	0	1	248	0.00	29.727 
06:45	39.1	39.1	39.1	85	35.0	0	1	248	0.00	29.734 
06:50	38.9	38.9	38.9	85	34.8	0	0	---	0.00	29.734 
06:55	38.9	38.9	38.9	85	34.8	0	1	248	0.00	29.734 
07:00	38.9	38.9	38.9	85	34.8	0	0	---	0.00	29.737 
07:05	38.9	38.9	38.9	85	34.8	0	1	248	0.00	29.737 
07:10	38.9	38.9	38.9	85	34.8	0	0	---	0.00	29.737 
07:15	38.9	38.9	38.9	85	34.8	0	0	---	0.00	29.746 
07:20	38.9	38.9	38.9	85	34.8	0	0	---	0.00	29.746 
07:25	38.8	38.8	38.8	85	34.7	0	0	---	0.00	29.746 
07:30	38.8	38.8	38.8	85	34.7	0	1	248	0.00	29.739 
07:35	38.8	38.8	38.8	85	34.7	0	1	248	0.00	29.739 
07:40	38.8	38.8	38.8	85	34.7	0	1	248	0.00	29.739 
07:45	38.6	38.6	38.6	85	34.5	0	0	---	0.00	29.742 
07:50	38.6	38.6	38.6	84	34.2	0	0	---	0.00	29.742 
07:55	38.6	38.6	38.6	85	34.5	0	1	248	0.00	29.742 
08:00	38.6	38.6	38.6	85	34.5	0	0	---	0.00	29.738 
08:05	38.6	38.6	38.6	85	34.5	0	0	---	0.00	29.738 
08:10	38.5	38.5	38.5	85	34.4	0	1	248	0.00	29.738 
08:15	38.5	38.5	38.5	85	34.4	0	1	248	0.00	29.738 
08:20	38.5	38.5	38.5	85	34.4	0	1	248	0.00	29.738 
08:25	38.3	38.3	38.3	85	34.2	0	0	---	0.00	29.738 
08:30	38.3	38.3	38.3	85	34.2	0	1	248	0.00	29.737 
08:35	38.3	38.3	38.3	85	34.2	0	1	248	0.00	29.737 
08:40	38.3	38.3	38.3	85	34.2	0	2	248	0.00	29.737 
08:45	38.2	38.2	38.2	85	34.1	0	1	248	0.00	29.733 
08:50	38.2	38.2	38.2	85	34.1	0	1	248	0.00	29.733 
08:55	38.2	38.2	38.2	85	34.1	0	0	---	0.00	29.733 
09:00	38.3	38.3	38.3	85	34.2	0	0	---	0.00	29.736 
09:05	38.3	38.3	38.3	85	34.2	0	0	---	0.00	29.736 
09:10	38.3	38.3	38.3	85	34.2	0	0	---	0.00	29.736 
09:15	38.3	38.3	38.3	85	34.2	0	1	248	0.00	29.734 
09:20	38.5	38.5	38.5	85	34.4	0	0	---	0.00	29.734 
09:25	38.5	38.5	38.5	85	34.4	0	1	248	0.00	29.734 
09:30	38.5	38.5	38.5	85	34.4	0	1	248	0.00	29.731 
09:35	38.5	38.5	38.5	85	34.4	0	0	---	0.00	29.731 
09:40	38.5	38.5	38.5	85	34.4	0	0	---	0.00	29.731 
09:45	38.5	38.5	38.5	85	34.4	0	1	248	0.00	29.725 
09:50	38.5	38.5	38.5	85	34.4	0	0	---	0.00	29.725 
09:55	38.5	38.5	38.5	85	34.4	0	1	248	0.00	29.725 
10:00	38.5	38.5	38.5	85	34.4	0	0	---	0.00	29.724 
10:05	38.5	38.5	38.5	85	34.4	0	0	---	0.00	29.724 
10:10	38.6	38.6	38.6	85	34.5	0	0	---	0.00	29.724 
10:15	38.6	38.6	38.6	85	34.5	0	0	---	0.00	29.724 
10:20	38.8	38.8	38.8	85	34.7	0	0	---	0.00	29.724 
10:25	38.8	38.8	38.8	84	34.4	0	1	135	0.00	29.724 
10:30	38.9	38.9	38.9	85	34.8	0	1	135	0.00	29.720 
10:35	38.9	38.9	38.9	84	34.5	0	1	135	0.00	29.720 
10:40	39.1	39.1	39.1	85	35.0	0	1	135	0.00	29.720 
10:45	39.1	39.1	39.1	85	35.0	0	1	135	0.00	29.713 
10:50	39.2	39.2	39.2	84	34.8	0	0	---	0.00	29.713 
10:55	39.2	39.2	39.2	84	34.8	0	0	---	0.00	29.713 
11:00	39.2	39.2	39.2	84	34.8	0	1	135	0.00	29.710 
11:05	39.3	39.3	39.3	85	35.2	0	1	135	0.00	29.710 
11:10	39.5	39.5	39.5	85	35.4	0	1	135	0.00	29.710 
11:15	39.6	39.6	39.6	85	35.5	0	1	135	0.00	29.705 
11:20	39.6	39.6	39.6	84	35.2	0	1	135	0.00	29.705 
11:25	39.8	39.8	39.8	84	35.4	0	1	135	0.00	29.705 
11:30	39.9	39.9	39.9	84	35.5	0	1	135	0.00	29.694 
11:35	40.1	40.1	40.1	84	35.7	0	2	135	0.00	29.694 
11:40	40.1	40.1	40.1	84	35.7	0	2	0	0.00	29.694 
11:45	40.2	40.2	40.2	83	35.5	0	2	0	0.00	29.689 
11:50	40.3	40.3	40.3	84	35.9	0	2	0	0.00	29.689 
11:55	40.5	40.5	40.5	83	35.8	1	3	0	0.00	29.689 
12:00	40.3	40.3	40.3	82	35.2	0	1	45	0.00	29.687 
12:05	40.3	40.3	40.3	82	35.2	0	0	---	0.00	29.687 
12:10	40.3	40.3	40.3	82	35.2	0	2	45	0.00	29.687 
12:15	40.5	40.5	40.5	82	35.4	0	1	45	0.00	29.685 
12:20	40.5	40.5	40.5	82	35.4	0	2	45	0.00	29.685 
12:25	40.5	40.5	40.5	82	35.4	1	2	45	0.00	29.685 
12:30	40.5	40.5	40.5	81	35.1	0	2	45	0.00	29.686 
12:35	40.5	40.5	40.5	81	35.1	0	2	45	0.00	29.686 
12:40	40.5	40.5	40.5	81	35.1	0	1	45	0.00	29.686 
12:45	40.5	40.5	40.5	81	35.1	0	3	45	0.00	29.685 
12:50	40.5	40.5	40.5	81	35.1	0	2	45	0.00	29.685 
12:55	40.6	40.6	40.6	81	35.2	0	1	45	0.00	29.685 
13:00	40.6	40.6	40.6	81	35.2	0	1	45	0.00	29.680 
13:05	40.8	40.8	40.8	81	35.4	0	2	45	0.00	29.680 
13:10	40.8	40.8	40.8	81	35.4	0	2	45	0.00	29.680 
13:15	40.8	40.8	40.8	81	35.4	0	1	45	0.00	29.669 
13:20	40.8	40.8	40.8	81	35.4	0	1	45	0.00	29.669 
13:25	40.9	40.9	40.9	80	35.2	0	0	---	0.00	29.669 
13:30	40.9	40.9	40.9	81	35.5	0	1	45	0.00	29.654 
13:35	41.1	41.1	41.1	80	35.4	0	0	---	0.00	29.654 
13:40	41.1	41.1	41.1	80	35.4	0	2	45	0.00	29.654 
13:45	41.2	41.2	41.2	81	35.8	0	1	45	0.00	29.645 
13:50	41.2	41.2	41.2	80	35.5	0	2	45	0.00	29.645 
13:55	41.3	41.3	41.3	80	35.6	0	2	45	0.00	29.645 
14:00	41.3	41.3	41.3	80	35.6	0	2	45	0.00	29.643 
14:05	41.5	41.5	41.5	80	35.8	1	3	45	0.00	29.643 
14:10	41.5	41.5	41.5	80	35.8	0	2	45	0.00	29.643 
14:15	41.5	41.5	41.5	80	35.8	0	1	45	0.00	29.632 
14:20	41.5	41.5	41.5	79	35.5	0	1	45	0.00	29.632 
14:25	41.5	41.5	41.5	79	35.5	0	1	45	0.00	29.632 
14:30	41.5	41.5	41.5	79	35.5	0	1	45	0.00	29.627 
14:35	41.6	41.6	41.6	80	35.9	0	2	45	0.00	29.627 
14:40	41.6	41.6	41.6	79	35.6	0	3	45	0.00	29.627 
14:45	41.6	41.6	41.6	79	35.6	0	2	45	0.00	29.626 
14:50	41.6	41.6	41.6	79	35.6	0	1	45	0.00	29.626 
14:55	41.5	41.5	41.5	80	35.8	0	2	45	0.00	29.626 
15:00	41.3	41.3	41.3	80	35.6	0	2	45	0.00	29.619 
15:05	41.2	41.2	41.2	80	35.5	0	1	45	0.00	29.619 
15:10	41.2	41.2	41.2	80	35.5	0	2	45	0.00	29.619 
15:15	41.1	41.1	41.1	80	35.4	0	2	45	0.00	29.619 
15:20	40.9	40.9	40.9	80	35.2	0	2	338	0.00	29.619 
15:25	40.9	40.9	40.9	80	35.2	0	1	338	0.00	29.619 
15:30	40.8	40.8	40.8	81	35.4	0	1	338	0.00	29.619 
15:35	40.8	40.8	40.8	81	35.4	0	2	90	0.00	29.619 
15:40	40.9	40.9	40.9	81	35.5	0	1	90	0.00	29.619 
15:45	40.9	40.9	40.9	81	35.5	0	1	90	0.00	29.615 
15:50	40.9	40.9	40.9	80	35.2	0	1	90	0.00	29.615 
15:55	40.9	40.9	40.9	81	35.5	0	1	90	0.00	29.615 
16:00	40.8	40.8	40.8	80	35.1	0	1	90	0.00	29.618 
16:05	40.8	40.8	40.8	81	35.4	0	1	90	0.00	29.618 
16:10	40.8	40.8	40.8	80	35.1	0	1	90	0.00	29.618 
16:15	40.8	40.8	40.8	80	35.1	0	2	90	0.00	29.619 
16:20	40.8	40.8	40.8	80	35.1	0	0	---	0.00	29.619 
16:25	40.8	40.8	40.8	80	35.1	0	1	90	0.00	29.619 
16:30	40.8	40.8	40.8	80	35.1	0	0	---	0.00	29.626 
16:35	40.8	40.8	40.8	80	35.1	0	0	---	0.00	29.626 
16:40	40.8	40.8	40.8	80	35.1	0	1	90	0.00	29.626 
16:45	40.8	40.8	40.8	80	35.1	0	0	---	0.00	29.629 
16:50	40.8	40.8	40.8	80	35.1	0	1	90	0.00	29.629 
16:55	40.8	40.8	40.8	80	35.1	0	1	90	0.00	29.629 
17:00	40.6	40.6	40.6	80	34.9	0	1	90	0.00	29.622 
17:05	40.6	40.6	40.6	80	34.9	0	0	---	0.00	29.622 
17:10	40.6	40.6	40.6	80	34.9	0	1	90	0.00	29.622 
17:15	40.6	40.6	40.6	81	35.2	0	1	90	0.00	29.616 
17:20	40.5	40.5	40.5	81	35.1	0	1	90	0.00	29.616 
17:25	40.5	40.5	40.5	81	35.1	0	1	90	0.00	29.616 
17:30	40.5	40.5	40.5	81	35.1	0	1	90	0.00	29.615 
17:35	40.3	40.3	40.3	81	34.9	0	1	90	0.00	29.615 
17:40	40.3	40.3	40.3	81	34.9	0	2	90	0.00	29.615 
17:45	40.3	40.3	40.3	81	34.9	0	2	90	0.00	29.616 
17:50	40.3	40.3	40.3	81	34.9	0	1	90	0.00	29.616 
17:55	40.3	40.3	40.3	81	34.9	0	2	90	0.00	29.616 
18:00	40.3	40.3	40.3	81	34.9	0	1	90	0.00	29.618 
18:05	40.2	40.2	40.2	81	34.8	0	1	90	0.00	29.618 
18:10	40.2	40.2	40.2	81	34.8	0	1	90	0.00	29.618 
18:15	40.2	40.2	40.2	81	34.8	0	1	90	0.00	29.618 
18:20	40.2	40.2	40.2	81	34.8	0	2	90	0.00	29.618 
18:25	40.1	40.1	40.1	81	34.7	0	1	90	0.00	29.618 
18:30	40.1	40.1	40.1	81	34.7	0	1	90	0.00	29.617 
18:35	40.1	40.1	40.1	81	34.7	0	1	90	0.00	29.617 
18:40	40.1	40.1	40.1	81	34.7	0	1	90	0.00	29.617 
18:45	40.1	40.1	40.1	81	34.7	0	1	90	0.00	29.618 
18:50	40.1	40.1	40.1	81	34.7	0	1	90	0.00	29.618 
18:55	40.1	40.1	40.1	80	34.4	0	1	90	0.00	29.618 
19:00	39.9	39.9	39.9	81	34.6	0	0	---	0.00	29.620 
19:05	39.9	39.9	39.9	81	34.6	0	1	90	0.00	29.620 
19:10	39.9	39.9	39.9	81	34.6	0	1	90	0.00	29.620 
19:15	39.9	39.9	39.9	81	34.6	0	1	90	0.00	29.616 
19:20	39.9	39.9	39.9	81	34.6	0	0	---	0.00	29.616 
19:25	39.9	39.9	39.9	81	34.6	0	1	90	0.00	29.616 
19:30	39.9	39.9	39.9	81	34.6	0	1	90	0.00	29.624 
19:35	39.9	39.9	39.9	81	34.6	0	1	90	0.00	29.624 
19:40	39.8	39.8	39.8	81	34.5	0	0	---	0.00	29.624 
19:45	39.8	39.8	39.8	81	34.5	0	0	---	0.00	29.630 
19:50	39.8	39.8	39.8	81	34.5	0	1	90	0.00	29.630 
19:55	39.8	39.8	39.8	82	34.8	0	0	---	0.00	29.630 
20:00	39.8	39.8	39.8	82	34.8	0	1	90	0.00	29.626 
20:05	39.8	39.8	39.8	82	34.8	0	0	---	0.00	29.626 
20:10	39.8	39.8	39.8	82	34.8	0	0	---	0.00	29.626 
20:15	39.8	39.8	39.8	82	34.8	0	0	---	0.00	29.628 
20:20	39.6	39.6	39.6	82	34.6	0	0	---	0.00	29.628 
20:25	39.6	39.6	39.6	82	34.6	0	0	---	0.00	29.628 
20:30	39.6	39.6	39.6	83	34.9	0	0	---	0.00	29.636 
20:35	39.6	39.6	39.6	83	34.9	0	0	---	0.00	29.636 
20:40	39.6	39.6	39.6	83	34.9	0	0	---	0.00	29.636 
20:45	39.5	39.5	39.5	83	34.8	0	0	---	0.00	29.636 
20:50	39.5	39.5	39.5	84	35.1	0	0	---	0.00	29.636 
20:55	39.5	39.5	39.5	84	35.1	0	0	---	0.00	29.636 
21:00	39.3	39.3	39.3	85	35.2	0	1	90	0.00	29.634 
21:05	39.2	39.2	39.2	85	35.1	0	0	---	0.01	29.634 
21:10	39.1	39.1	39.1	86	35.3	0	0	---	0.00	29.634 
21:15	39.1	39.1	39.1	86	35.3	0	0	---	0.00	29.635 
21:20	38.9	38.9	38.9	86	35.1	0	0	---	0.00	29.635 
21:25	38.9	38.9	38.9	87	35.4	0	1	90	0.00	29.635 
21:30	38.8	38.8	38.8	87	35.3	0	2	90	0.00	29.639 
21:35	38.8	38.8	38.8	87	35.3	0	2	90	0.00	29.639 
21:40	38.6	38.6	38.6	88	35.4	0	0	---	0.00	29.639 
21:45	38.6	38.6	38.6	88	35.4	0	2	90	0.00	29.646 
21:50	38.5	38.5	38.5	88	35.3	0	2	90	0.00	29.646 
21:55	38.5	38.5	38.5	88	35.3	0	1	90	0.00	29.646 
22:00	38.5	38.5	38.5	88	35.3	0	0	---	0.01	29.648 
22:05	38.3	38.3	38.3	88	35.1	0	1	90	0.00	29.648 
22:10	38.3	38.3	38.3	88	35.1	0	1	90	0.01	29.648 
22:15	38.2	38.2	38.2	88	35.0	0	0	---	0.00	29.652 
22:20	37.9	37.9	37.9	88	34.7	0	1	90	0.01	29.652 
22:25	37.8	37.8	37.8	89	34.9	0	0	---	0.00	29.652 
22:30	37.8	37.8	37.8	89	34.9	0	0	---	0.01	29.658 
22:35	37.6	37.6	37.6	89	34.7	0	0	---	0.00	29.658 
22:40	37.6	37.6	37.6	89	34.7	0	0	---	0.00	29.658 
22:45	37.6	37.6	37.6	89	34.7	0	0	---	0.01	29.660 
22:50	37.6	37.6	37.6	90	34.9	0	0	---	0.00	29.660 
22:55	37.6	37.6	37.6	90	34.9	0	0	---	0.00	29.660 
23:00	37.5	37.5	37.5	90	34.8	0	0	---	0.00	29.660 
23:05	37.5	37.5	37.5	90	34.8	0	0	---	0.00	29.660 
23:10	37.5	37.5	37.5	90	34.8	0	1	90	0.01	29.660 
23:15	37.5	37.5	37.5	90	34.8	0	2	90	0.00	29.662 
23:20	37.3	37.3	37.3	91	34.9	0	1	90	0.00	29.662 
23:25	37.3	37.3	37.3	91	34.9	0	1	90	0.00	29.662 
23:30	37.2	37.2	37.2	91	34.8	0	2	90	0.00	29.664 
23:35	36.9	36.9	36.9	91	34.5	0	1	90	0.00	29.664 
23:40	36.8	36.8	36.8	91	34.4	0	1	90	0.00	29.664 
23:45	36.6	36.6	36.6	91	34.2	0	1	90	0.00	29.665 
23:50	36.5	36.5	36.5	91	34.1	0	0	---	0.00	29.665 
23:55	36.5	36.5	36.5	91	34.1	0	1	90	0.00	29.665 

CoCoRaHS
IN-AL-39
A2 Web Hosting
Creative Commons License
GoDaddy
search engine by freefind advanced

loaded 2018-11-15 03:02:23 • last modified 2010-11-18 10:43:29
Privacy PolicyDisclaimer
• wx.awcolley.com is powered by PmWiki v.2002016 •
• all content (unless otherwise noted) © 2018 A W Colley